TimeEDT,TemperatureF,Dew PointF,Humidity,Sea Level PressureIn,VisibilityMPH,Wind Direction,Wind SpeedMPH,Gust SpeedMPH,PrecipitationIn,Events,Conditions,WindDirDegrees,DateUTC
12:51 AM,65.8,52.9,63,29.91,10.0,North,5.8,-,N/A,,Clear,350,2012-08-29 04:51:00
1:51 AM,63.9,52.9,67,29.92,10.0,WNW,5.8,-,N/A,,Clear,290,2012-08-29 05:51:00
2:51 AM,61.9,52.0,70,29.92,10.0,NW,6.9,-,N/A,,Clear,320,2012-08-29 06:51:00
3:51 AM,59.9,50.9,72,29.93,10.0,NW,6.9,-,N/A,,Clear,320,2012-08-29 07:51:00
4:51 AM,56.8,50.0,78,29.93,10.0,NW,6.9,-,N/A,,Clear,310,2012-08-29 08:51:00
5:51 AM,55.9,50.0,80,29.94,10.0,WNW,5.8,-,N/A,,Clear,300,2012-08-29 09:51:00
6:51 AM,55.9,48.9,77,29.96,4.0,NW,6.9,-,N/A,,Haze,310,2012-08-29 10:51:00
7:51 AM,59.9,46.9,62,29.98,6.0,NW,8.1,-,N/A,,Haze,310,2012-08-29 11:51:00
8:29 AM,62.6,46.4,55,29.97,1.8,NW,11.5,-,N/A,,Haze,320,2012-08-29 12:29:00
8:36 AM,62.6,44.6,52,29.96,3.0,NW,9.2,-,N/A,,Haze,310,2012-08-29 12:36:00
8:51 AM,63.0,45.0,52,29.98,4.0,NNW,11.5,-,N/A,,Haze,340,2012-08-29 12:51:00
9:51 AM,65.8,41.9,42,29.99,10.0,NNW,13.8,-,N/A,,Clear,340,2012-08-29 13:51:00
10:06 AM,66.2,42.8,43,29.99,2.5,NNW,11.5,-,N/A,,Haze,340,2012-08-29 14:06:00
10:15 AM,66.2,42.8,43,29.99,8.0,North,12.7,-,N/A,,Clear,360,2012-08-29 14:15:00
10:51 AM,66.9,41.9,40,29.99,10.0,North,9.2,-,N/A,,Clear,350,2012-08-29 14:51:00
11:51 AM,68.9,41.9,37,29.99,10.0,WNW,6.9,-,N/A,,Clear,300,2012-08-29 15:51:00
12:51 PM,70.9,43.0,37,29.98,10.0,North,9.2,-,N/A,,Clear,360,2012-08-29 16:51:00
1:51 PM,72.9,45.0,37,29.97,10.0,WNW,6.9,-,N/A,,Clear,290,2012-08-29 17:51:00
2:51 PM,73.9,45.0,35,29.95,8.0,NNW,9.2,-,N/A,,Clear,340,2012-08-29 18:51:00
3:51 PM,75.9,45.9,34,29.94,10.0,WNW,11.5,-,N/A,,Clear,300,2012-08-29 19:51:00
4:51 PM,75.9,47.8,37,29.94,10.0,NW,8.1,-,N/A,,Clear,320,2012-08-29 20:51:00
5:51 PM,77.0,46.9,34,29.94,10.0,NNW,9.2,-,N/A,,Clear,330,2012-08-29 21:51:00
6:51 PM,72.9,52.0,48,29.94,10.0,Variable,3.5,-,N/A,,Clear,0,2012-08-29 22:51:00
7:51 PM,66.9,54.9,65,29.96,10.0,NW,4.6,-,N/A,,Clear,320,2012-08-29 23:51:00
8:51 PM,63.9,54.9,72,29.97,10.0,NW,4.6,-,N/A,,Clear,320,2012-08-30 00:51:00
9:51 PM,63.9,52.0,65,29.99,10.0,WNW,4.6,-,N/A,,Clear,300,2012-08-30 01:51:00
10:51 PM,61.0,52.9,75,29.99,10.0,NNW,4.6,-,N/A,,Clear,330,2012-08-30 02:51:00
11:51 PM,59.0,52.0,78,30.00,10.0,NW,4.6,-,N/A,,Clear,310,2012-08-30 03:51:00